GW7661 Weather Reports


time (UTC)temp
C
wind
direction
speed
KPH
gust
KPH
rain 1hr
cm
rain 24hr
cm
rain mn
cm
humidity
%
barometer
mb
20260906234623 32 234 3.2 11.3 0.00 0.13 0.13 48 1013.9
20260906233103 33 127 3.2 8.0 0.00 0.13 0.13 48 1014.0
20260906231604 33 233 1.6 14.5 0.00 0.13 0.13 48 1014.0
20260906230105 32 221 4.8 12.9 0.00 0.13 0.13 48 1014.0
20260906224600 32 185 3.2 11.3 0.00 0.13 0.13 53 1014.1
20260906223059 32 158 4.8 9.7 0.00 0.13 0.13 54 1014.4
20260906221606 32 117 3.2 12.9 0.00 0.13 0.13 51 1014.5
20260906220104 33 250 4.8 12.9 0.00 0.13 0.13 50 1014.5
20260906214557 34 15 1.6 6.4 0.00 0.13 0.13 47 1014.6
20260906213104 34 235 3.2 8.0 0.00 0.13 0.13 48 1014.9
20260906211606 33 101 1.6 8.0 0.00 0.13 0.13 50 1015.1
20260906210059 31 134 1.6 8.0 0.00 0.13 0.13 53 1015.3
20260906204605 31 116 1.6 6.4 0.00 0.13 0.13 58 1015.4
20260906203113 31 46 3.2 6.4 0.00 0.13 0.13 59 1015.6
20260906201605 30 359 0.0 1.6 0.00 0.13 0.13 64 1015.7
20260906194621 27 55 0.0 3.2 0.00 0.13 0.13 74 1016.1
20260906193110 26 0 0.0 3.2 0.00 0.13 0.13 75 1016.1
20260906191608 26 295 1.6 4.8 0.08 0.13 0.13 78 1016.1
20260906184602 25 237 0.0 3.2 0.13 0.13 0.13 87 1016.7
20260906183110 25 214 0.0 3.2 0.13 0.13 0.13 85 1016.9
20260906181636 26 240 1.6 9.7 0.05 0.05 0.05 77 1016.9
20260906180110 29 53 3.2 9.7 0.00 0.00 0.00 60 1016.7
20260906174600 31 56 3.2 8.0 0.00 0.00 0.00 55 1017.0
20260906173056 31 157 1.6 6.4 0.00 0.00 0.00 50 1017.0
20260906171612 31 323 1.6 4.8 0.00 0.00 0.00 50 1017.2
20260906170115 31 127 3.2 11.3 0.00 0.00 0.00 51 1017.3
20260906164603 31 237 1.6 6.4 0.00 0.00 0.00 54 1017.4
20260906163109 31 250 1.6 8.0 0.00 0.00 0.00 54 1017.4
20260906161602 31 97 1.6 8.0 0.00 0.00 0.00 54 1017.3
20260906160107 30 259 1.6 6.4 0.00 0.00 0.00 58 1017.2
20260906154558 30 206 1.6 6.4 0.00 0.00 0.00 59 1017.1
20260906153105 29 213 1.6 6.4 0.00 0.00 0.00 59 1017.1
20260906151607 29 238 3.2 8.0 0.00 0.00 0.00 60 1016.9
20260906150108 28 269 4.8 9.7 0.00 0.00 0.00 62 1016.8
20260906144614 28 211 6.4 9.7 0.00 0.00 0.00 62 1016.7
20260906143112 27 201 3.2 8.0 0.00 0.00 0.00 68 1016.7
20260906141604 26 110 0.0 1.6 0.00 0.00 0.00 73 1016.7
20260906140100 25 0 0.0 3.2 0.00 0.00 0.00 77 1016.6
20260906134605 24 0 0.0 1.6 0.00 0.00 0.00 77 1016.5
20260906133117 24 0 0.0 0.0 0.00 0.00 0.00 78 1016.3
20260906131602 23 0 0.0 1.6 0.00 0.00 0.00 80 1016.3
20260906130108 23 0 0.0 0.0 0.00 0.00 0.00 81 1015.8
20260906124604 22 0 0.0 1.6 0.00 0.00 0.00 81 1015.7
20260906123108 22 280 0.0 1.6 0.00 0.00 0.00 81 1015.4
20260906121606 22 0 0.0 1.6 0.00 0.00 0.00 81 1015.2
20260906120112 23 0 0.0 1.6 0.00 0.00 0.00 79 1015.1
20260906114603 23 349 0.0 4.8 0.00 0.00 0.00 78 1015.0
20260906113102 23 231 1.6 8.0 0.00 0.00 0.00 78 1014.7
20260906111600 23 243 0.0 3.2 0.00 0.00 0.00 78 1014.7
20260906110104 23 222 0.0 8.0 0.00 0.00 0.00 78 1014.6
20260906104608 23 238 0.0 3.2 0.00 0.00 0.00 77 1014.4
20260906103100 23 0 1.6 6.4 0.00 0.00 0.00 77 1014.2
20260906101557 23 219 1.6 8.0 0.00 0.00 0.00 76 1014.1
20260906100105 23 209 1.6 8.0 0.00 0.00 0.00 76 1014.1
20260906094615 24 200 4.8 11.3 0.00 0.00 0.00 75 1014.3
20260906093131 24 203 4.8 12.9 0.00 0.00 0.00 75 1014.4
20260906091612 24 241 4.8 14.5 0.00 0.00 0.00 75 1014.3
20260906090104 24 195 4.8 11.3 0.00 0.00 0.00 74 1014.4
20260906084605 24 245 4.8 11.3 0.00 0.00 0.00 73 1014.2
20260906083105 24 217 6.4 14.5 0.00 0.00 0.00 73 1014.4
20260906081609 24 175 3.2 8.0 0.00 0.00 0.00 74 1014.6
20260906080105 25 192 6.4 14.5 0.00 0.00 0.00 74 1014.7
20260906074601 25 204 3.2 8.0 0.00 0.00 0.00 74 1015.0
20260906073058 25 238 1.6 6.4 0.00 0.00 0.00 74 1014.9
20260906071557 25 208 1.6 6.4 0.00 0.00 0.00 73 1015.1
20260906070107 25 211 1.6 8.0 0.00 0.00 0.00 72 1015.1
20260906064600 25 214 1.6 9.7 0.00 0.00 0.00 71 1015.4
20260906063058 26 205 3.2 11.3 0.00 0.00 0.00 71 1015.5
20260906061558 26 200 3.2 14.5 0.00 0.00 0.00 70 1015.4
20260906060105 26 214 3.2 12.9 0.00 0.00 0.00 69 1015.5
20260906054610 26 214 1.6 9.7 0.00 0.00 0.00 69 1015.5
20260906053057 26 266 3.2 11.3 0.00 0.00 0.00 69 1015.6
20260906051605 26 231 3.2 11.3 0.00 0.00 0.00 68 1015.4
20260906050111 27 140 1.6 8.0 0.00 0.00 0.00 66 1015.7
20260906044603 27 178 1.6 8.0 0.00 0.00 0.00 64 1015.7
20260906043105 27 184 1.6 9.7 0.00 0.00 0.00 63 1015.7
20260906041604 27 263 1.6 6.4 0.00 0.00 0.00 63 1015.6
20260906040107 27 15 0.0 4.8 0.00 0.00 0.00 62 1015.5
20260906034604 27 211 0.0 4.8 0.00 0.00 0.00 60 1015.3
20260906033056 27 261 0.0 4.8 0.00 0.00 0.00 57 1015.3
20260906031600 27 131 1.6 9.7 0.00 0.00 0.00 57 1015.3
20260906030104 26 0 0.0 0.0 0.00 0.00 0.00 55 1014.9
20260906024603 26 0 0.0 0.0 0.00 0.00 0.00 55 1014.5
20260906023104 27 0 0.0 0.0 0.00 0.00 0.00 55 1014.1
20260906021602 27 0 0.0 0.0 0.00 0.00 0.00 54 1013.9
20260906020106 27 0 0.0 0.0 0.00 0.00 0.00 53 1013.8
20260906014649 28 0 0.0 0.0 0.00 0.00 0.00 52 1013.6
20260906013108 29 0 0.0 0.0 0.00 0.00 0.00 50 1013.6
20260906011606 30 0 0.0 0.0 0.00 0.00 0.00 48 1013.5
20260906010057 31 0 0.0 1.6 0.00 0.00 0.00 46 1013.5
20260906004612 31 0 0.0 4.8 0.00 0.00 0.00 45 1013.3
20260906003115 32 100 1.6 11.3 0.00 0.00 0.00 43 1013.2
20260906001605 33 115 3.2 8.0 0.00 0.00 0.00 42 1013.2
20260906000105 33 272 1.6 9.7 0.00 0.00 0.00 42 1013.1